THORAD AGENA D DEB, 5203

Orbit data source: Space-Track

THORAD AGENA D DEB, 5203 is space debris in SSO originally from a launch on Wed, 08 Apr 1970 UTC launched from the Air Force Western Test Range (AFWTR). Debris objects in space refer to the collection of defunct objects orbiting the Earth. Examples of debris include non-operational satellites, rocket bodies, and fragments generated from explosions, collisions, or faulty payload assembly.

Loading next visibility...
Identifier
5203, 1970-025KE
Orbit
SSO
Country
Flag of USUS
Related business
Manufacturer
Unknown
Mission
Spacecraft
Bus & Motor
Unknown
Mass
Unknown
Launch date (UTC)
1970-04-08 (56 years ago)
Launch vehicle
Unknown
Launch site
Air Force Western Test Range (AFWTR)
Object type
Payload
Rocket body
Debris
Shape & HBR
Unknown shape, 0.1 m
Radar Cross Section
Medium (>0.1 m² and <1 m²)

Expand to show TLE details & history
Last TLE update: 3 days ago

TLE from 3 days ago
0 THORAD AGENA D DEB
1 05203U 70025KE  26235.82016428  .00000311  00000-0  80397-3 0  9998
2 05203  99.8278 264.4146 0218230 281.5433 259.6427 13.17694223691913
Epoch: 2026-08-23T19:41Z
TLE epoch observation values (Epoch: 2026-08-23T19:41:02.193Z)
Latitude
1.13967°
Longitude
177.24118°
Altitude
1,229.318 km
Speed
7.224 km/s
True Right ascension
05h 38m 26s
True Declination
1° 07' 60"
Sunlit
Object was in daylight at epoch
Visualization orbit readout
Latitude
Unknown
Longitude
Unknown
Altitude
Unknown
Speed
Unknown
Apparent Right ascension
Unknown
Apparent Declination
Unknown
Sunlit
N/A
Visualization observer readout
Local Sidereal Time
02:30:17
Azimuth
Unknown
Elevation
Unknown
Doppler factor
Unknown
Orbital elements
Apogee altitude
1,356.068 km
Perigee altitude
1,025.71 km
Semi-major axis
7,569.026 km
Eccentricity
0.02182
Inclination
99.8278°
RAAN
264.4146°
Arg. of periapsis
281.5433°
True anomaly
257.19547°
Mean anomaly
259.6427°
Eccentric anomaly
258.41779°
Mean motion
3.29597 °/min
Orbital period
109.22 mins
BSTAR
0.00080397
Loading maneuver chart data...
Computing Atmospheric mass density...

Documentation

Showing up to 5 results
|